Weather History for Scottsbluff, NE

Change the Weather History Date:

Sunday, September 15, 2013

  Actual Average Record
Temperature  
Mean Temperature 62 °F 62 °F  
Max Temperature 69 °F 78 °F 97 °F (1948)
Min Temperature 55 °F 46 °F 26 °F (1934)
Degree Days  
Heating Degree Days 3 5  
Month to date heating degree days 7 45  
Since 1 July heating degree days 9 65  
Cooling Degree Days 0 2  
Month to date cooling degree days 134 46  
Year to date cooling degree days 1026 711  
Growing Degree Days 12 (Base 50)    
Moisture  
Dew Point 54 °F    
Average Humidity 71    
Maximum Humidity 86    
Minimum Humidity 55    
Precipitation  
Precipitation T in 0.04 in 0.78 in (1918)
Month to date precipitation 1.02 0.60  
Year to date precipitation 8.87 12.90  
Snow  
Snow 0.00 in 0.00 in - ()
Month to date snowfall 0.0 0.1  
Since 1 July snowfall 0.0 0.1  
Snow Depth 0.00 in    
Sea Level Pressure  
Sea Level Pressure 30.13 in    
Wind  
Wind Speed 11 mph (ENE)    
Max Wind Speed 17 mph    
Max Gust Speed 23 mph    
Visibility 10 miles    
Events Rain    
T = Trace of Precipitation, MM = Missing Value Source: NWS Daily Summary

Daily Weather History Graph

Daily Weather History Graph

Search for Another Location

Airport:

Trip Planner

Search our weather history database for the weather conditions in past years. The results will help you decide how hot, cold, wet, or windy it might be!

Date:

Astronomy

Sep. 15, 2013 Rise Set
Actual Time 6:34 AM MDT 7:03 PM MDT
Civil Twilight 6:06 AM MDT 7:31 PM MDT
Nautical Twilight 5:33 AM MDT 8:04 PM MDT
Astronomical Twilight 4:59 AM MDT 8:37 PM MDT
Moon 4:35 PM MDT (9/15) 2:12 AM MDT (9/15)
Length of Visible Light 13h 24m
Length of Day
12h 28m
Waxing Gibbous, 82% of the Moon is Illuminated
Sep 15
Waxing Gibbous
Sep 19
Full
Sep 26
Last Quarter
Oct 4
New
Oct 11
First Quarter

Hourly Weather History & Observations

Time (MDT) Temp. Dew Point Humidity Pressure Visibility Wind Dir Wind Speed Gust Speed Precip Events Conditions
12:53 AM 64.0 °F 59.0 °F 84% 29.93 in 10.0 mi East 4.6 mph - N/A   Overcast
1:02 AM 64.4 °F 59.0 °F 83% 30.05 in 10.0 mi ENE 6.9 mph - N/A   Overcast
1:53 AM 64.0 °F 57.9 °F 80% 29.94 in 10.0 mi NE 6.9 mph - N/A   Overcast
2:24 AM 62.6 °F 57.2 °F 82% 30.07 in 10.0 mi NE 5.8 mph - N/A   Overcast
2:35 AM 62.6 °F 57.2 °F 82% 30.07 in 10.0 mi NE 8.1 mph - N/A   Overcast
2:46 AM 62.6 °F 55.4 °F 77% 30.07 in 10.0 mi Calm Calm - N/A   Overcast
2:53 AM 63.0 °F 55.9 °F 78% 29.94 in 10.0 mi Calm Calm - N/A   Overcast
3:05 AM 62.6 °F 55.4 °F 77% 30.08 in 10.0 mi Variable 3.5 mph - N/A   Overcast
3:53 AM 62.1 °F 55.9 °F 80% 29.97 in 10.0 mi North 5.8 mph - 0.00 in Rain Light Rain
4:53 AM 61.0 °F 55.0 °F 81% 30.00 in 10.0 mi NE 9.2 mph - 0.00 in Rain Light Rain
5:53 AM 61.0 °F 55.0 °F 81% 30.02 in 10.0 mi North - - 0.00 in   Overcast
6:53 AM 61.0 °F 55.0 °F 81% 30.05 in 10.0 mi NE 10.4 mph 16.1 mph N/A   Overcast
7:53 AM 61.0 °F 55.9 °F 83% 30.09 in 10.0 mi ENE 9.2 mph - N/A   Overcast
8:53 AM 62.1 °F 55.9 °F 80% 30.11 in 10.0 mi ENE 11.5 mph - N/A   Overcast
9:03 AM 62.6 °F 55.4 °F 77% 30.21 in 10.0 mi NE 12.7 mph - N/A   Overcast
9:53 AM 61.0 °F 55.9 °F 83% 30.14 in 10.0 mi NE 13.8 mph 21.9 mph N/A   Overcast
10:10 AM 62.6 °F 55.4 °F 77% 30.23 in 10.0 mi NE 15.0 mph 23.0 mph N/A   Overcast
10:53 AM 62.1 °F 54.0 °F 75% 30.15 in 10.0 mi NE 11.5 mph 20.7 mph N/A   Overcast
11:53 AM 64.0 °F 54.0 °F 70% 30.17 in 10.0 mi NE 15.0 mph - N/A   Overcast
12:53 PM 66.0 °F 53.1 °F 63% 30.17 in 10.0 mi NE 15.0 mph - N/A   Overcast
1:53 PM 66.0 °F 53.1 °F 63% 30.17 in 10.0 mi NE 15.0 mph 19.6 mph N/A   Overcast
2:53 PM 66.0 °F 52.0 °F 60% 30.16 in 10.0 mi ENE 13.8 mph - N/A   Overcast
3:53 PM 68.0 °F 52.0 °F 56% 30.16 in 10.0 mi East 16.1 mph - N/A   Overcast
4:53 PM 66.0 °F 52.0 °F 60% 30.17 in 10.0 mi East 13.8 mph - N/A   Partly Cloudy
5:53 PM 64.0 °F 50.0 °F 60% 30.18 in 10.0 mi East 16.1 mph - N/A   Clear
6:53 PM 60.1 °F 50.0 °F 69% 30.19 in 10.0 mi East 8.1 mph - N/A   Clear
7:53 PM 57.0 °F 51.1 °F 81% 30.21 in 10.0 mi North - - N/A   Clear
8:53 PM 57.0 °F 51.1 °F 81% 30.21 in 10.0 mi East 8.1 mph - N/A   Clear
9:49 PM 55.4 °F 51.8 °F 88% 30.29 in 10.0 mi ESE 6.9 mph - N/A   Mostly Cloudy
9:53 PM 55.9 °F 52.0 °F 87% 30.22 in 10.0 mi East 8.1 mph - N/A   Mostly Cloudy
10:14 PM 57.2 °F 51.8 °F 82% 30.30 in 10.0 mi ESE 8.1 mph - N/A   Overcast
10:53 PM 57.0 °F 51.1 °F 81% 30.23 in 10.0 mi ESE 12.7 mph - N/A   Overcast
11:53 PM 55.9 °F 52.0 °F 87% 30.22 in 10.0 mi SE 11.5 mph - N/A   Overcast